Regional Weather Roundup
Issued by NWS Mt. Holly, NJ

Home | Current Version | Previous Version | Text Only | Print | Product List | Glossary On
Versions: 1 2 3 4 5 6 7 8 9 10 11 12 13 14 15 16 17 18 19 20 21 22 23 24 25 26 27 28 29 30 31 32 33 34 35 36 37 38 39 40 41 42 43 44 45 46 47 48 49 50
000
ASUS41 KPHI 280310
RWRPHI

REGIONAL WEATHER ROUNDUP
NATIONAL WEATHER SERVICE MOUNT HOLLY NJ
1100 PM EDT WED AUG 27 2014

NOTE:  "FAIR" INDICATES FEW OR NO CLOUDS BELOW 12,000 FEET WITH NO
SIGNIFICANT WEATHER AND/OR OBSTRUCTIONS TO VISIBILITY.

 * = STATION DOES NOT REPORT PRECIPITATION (E.G. RAIN, SNOW, ETC.)
        OR FOG.

NJZ015>026-280400-
SOUTHERN NEW JERSEY

CITY           SKY/WX    TMP DP  RH WIND       PRES   REMARKS
POMONA         CLEAR     72  67  84 MISG      29.90F
RIO GRANDE*    CLEAR     72  64  78 SW5       29.91F
MILLVILLE      CLEAR     70  66  87 CALM      29.91S
WRIGHTSTOWN    CLEAR     72  67  84 SW6       29.87S
MOUNT HOLLY    CLEAR     77  66  68 SW5       29.89S
TRENTON        CLEAR     78  67  68 W3        29.88F

$$
NJZ001>014-280400-
NORTHERN NEW JERSEY

CITY           SKY/WX    TMP DP  RH WIND       PRES   REMARKS
SUSSEX         MOCLDY    74  71  91 CALM      29.91F FOG
ANDOVER*         N/A     75  70  84 CALM      29.92F
MORRISTOWN     MOCLDY    75  70  83 CALM      29.88F
NEWARK         MOCLDY    80  67  64 S5        29.87S
TETERBORO      PTCLDY    80  64  58 NE5       29.86F
CALDWELL       MOCLDY    80  68  66 NE7       29.88F
SOMERVILLE     MOCLDY    76  69  79 N5        29.87R
ALLAIRE*       PTCLDY    73  63  68 SW6       29.89S
TOMS RIVER*    CLEAR     70  64  83 CALM      29.90S

$$
PAZ043-044-047-054-055-060>062-066>071-280400-
EASTERN PENNSYLVANIA

CITY           SKY/WX    TMP DP  RH WIND       PRES   REMARKS
PHILADELPHIA   PTCLDY    79  67  66 SW8       29.90S
NORTH PHILA    CLEAR     81  65  58 W9        29.90S
BLUE BELL      PTCLDY    77  68  73 CALM      29.90R
DOYLESTOWN     PTCLDY    77  68  73 SW5       29.89F
QUAKERTOWN*    PTCLDY    73  70  88 CALM      29.92S
POTTSTOWN      PTCLDY    76  69  79 CALM      29.92S
LANCASTER      PTCLDY    76  68  76 CALM      29.92S
COATESVILLE    PTCLDY    73  72  94 NW5       29.93F
READING        MOCLDY    78  67  68 VRB3      29.91R
ALLENTOWN      MOCLDY    77  70  79 N5        29.91R
MOUNT POCONO   MOCLDY    69  65  86 N9        29.99S
HAZLETON       CLOUDY    70  68  94 N5        30.02F
WILKES BARRE   MOCLDY    74  63  68 N7        29.98R

$$
DEZALL-MDZ008-012-015-019-020-280400-
DELAWARE AND EASTERN MARYLAND

CITY           SKY/WX    TMP DP  RH WIND       PRES   REMARKS
WILMINGTON     CLEAR     77  67  71 CALM      29.91S
DOVER          CLEAR     72  68  86 S5        29.89S
GEORGETOWN     CLEAR     70  65  84 S9        29.92S
EASTON         CLEAR     76  68  77 CALM      29.94
PATUXENT       CLEAR     74  67  78 SW7       29.91F
OCEAN CITY     CLEAR     64  62  93 CALM      29.92S
WALLOPS ISLAND CLEAR     72  66  81 W5        29.93R
CAMBRIDGE      CLEAR     72  66  83 CALM      29.91F
SALISBURY      CLEAR     72  65  78 CALM      29.92S

$$
PAZ001-021-NYZ056-072-MDZ011-DCZ001-280400-
OTHER NEARBY LOCATIONS

CITY           SKY/WX    TMP DP  RH WIND       PRES   REMARKS
HARRISBURG     MOCLDY    79  71  76 NE5       29.91S
STATE COLLEGE  PTCLDY    73  65  76 NW8       30.01R
WILLIAMSPORT   CLOUDY    77  62  59 N6        29.97R
BINGHAMTON     MOCLDY    61  56  83 CALM      30.03S
NEW YORK CITY  PTCLDY    78  65  63 NE3       29.91F
BALTIMORE      PTCLDY    74  68  81 CALM      29.91S
WASHINGTON DC  PTCLDY    81  65  58 S3        29.92S

$$


USA.gov is the U.S. government's official web portal to all federal, state and local government web resources and services.